Regional Weather Roundup
Issued by NWS

Home | Current Version | Previous Version | Text Only | Print | Product List | Glossary Off
Versions: 1 2 3 4 5 6 7 8 9 10 11 12 13 14 15 16 17 18 19 20 21 22 23 24 25 26 27 28 29 30 31 32 33 34 35 36 37 38 39 40 41 42 43 44 45 46 47 48 49 50

000
ASUS43 KMPX 241101
RWRMN
WEATHER ROUNDUP FOR MINNESOTA
NATIONAL WEATHER SERVICE TWIN CITIES/CHANHASSEN MN
500 AM CST MON NOV 24 2014


NOTE: "FAIR" INDICATES FEW OR NO CLOUDS BELOW 12,000 FEET WITH NO
SIGNIFICANT WEATHER AND/OR OBSTRUCTIONS TO VISIBILITY. N/A MEANS
CURRENT SKY AND/OR WEATHER CONDITIONS ARE NOT AVAILABLE.

MNZ060>063-068>070-241200-
   Twin Cities Metro

CITY           SKY/WX    TMP DP  RH WIND       PRES   REMARKS
TWIN CITIES    CLOUDY    27  22  81 NW21G30   29.31R WCI  13
ST PAUL        CLOUDY    29  25  85 NW17      29.31S WCI  17
CRYSTAL        CLOUDY    27  22  81 NW17G29   29.31S WCI  14
BLAINE         CLOUDY    28  27  93 NW16G26   29.30S WCI  17
LAKEVILLE      CLOUDY    27  25  93 NW20G28   29.29S WCI  13
EDEN PRAIRIE   CLOUDY    27  22  81 NW20G28   29.31S WCI  13
SOUTH ST PAUL  CLOUDY    30  26  84 NW16G24   29.30R WCI  18
LAKE ELMO      CLOUDY    30  28  93 NW18G24   29.28S WCI  18
$$
MNZ001>005-007-008-013>017-022>024-027-028-241200-
   Northwest Minnesota

CITY           SKY/WX    TMP DP  RH WIND       PRES   REMARKS
BEMIDJI        FLURRIES  15  13  89 NW15      29.44R WCI   0
HALLOCK        CLOUDY    10   5  79 N25G35    29.64R WCI -10
ROSEAU         FLURRIES  14   9  79 N21       29.55R WCI  -4
WARROAD        LGT SNOW  12  10  92 NW10G16   29.53R WCI  -1
THIEF RVR FALL CLOUDY    10   7  85 NW23      29.55R WCI -10
CROOKSTON      CLOUDY    10   7  85 N26G33    29.61R WCI -11
FOSSTON        LGT SNOW  10   7  85 NW14G21   29.52R WCI  -5
DETROIT LAKES  LGT SNOW  14  12  92 NW15G26   29.51S WCI  -1
MOORHEAD       MIX PCPN  14  12  92 N23G37    29.60R WCI  -5
PARK RAPIDS    CLOUDY    16  11  80 NW14G23   29.42S WCI   2
MAHNOMEN       LGT SNOW  12   9  85 NW18      29.52R WCI  -5
$$
MNZ006-009>011-018-025>026-241200-
   North Central Minnesota

CITY           SKY/WX    TMP DP  RH WIND       PRES   REMARKS
BAUDETTE       LGT SNOW  18  14  84 N18G31    29.46R FOG     WCI   2
FLAG ISLAND    FLURRIES  14  10  85 N22       29.52R WCI  -4
INTL FALLS     LGT SNOW  25  22  88 N21       29.37R FOG     WCI  11
WASKISH        CLOUDY    21  19  93 NW9G17    29.43R WCI  11
BIG FORK       MIX PCPN  25  23  93 NW9       29.35S WCI  15
LONGVILLE      CLOUDY    19  18  93 NW13G22   29.38S FOG     WCI   7
GRAND RAPIDS   CLOUDY    23  21  93 NW20G26   29.32S WCI   8
CRANE LAKE     LGT SNOW  30  30 100 N9        29.32R WCI  22
ORR            MIX PCPN  28  27  93 NW12      29.27S WCI  18
COOK           LGT SNOW  30  30 100 NW10      29.28S WCI  21
WALKER         CLOUDY    17  14  90 NW9G16    29.41S WCI   5
$$
MNZ012-019>021-037-241200-
   Northeast Minnesota

CITY           SKY/WX    TMP DP  RH WIND       PRES   REMARKS
DULUTH         LGT SNOW  34  31  88 NW16G23   29.21S VSB 1   WCI  24
ELY            LGT SNOW  32  30  93 N7        29.23S WCI  26
HIBBING        LGT SNOW  30  26  85 NW16G23   29.28R FOG     WCI  19
EVELETH        LGT SNOW  32  32 100 W9        29.27R WCI  24
DULUTH HARBOR  DRIZZLE   36  34  93 NW5G17    29.23F
TWO HARBORS    DRIZZLE   37  34  87 NW9G17    29.17S
SILVER BAY     CLOUDY    37  34  87 NW7       29.16S
GRAND MARAIS     N/A     36  32  85 N21G33    29.12S
G MARAIS ARPRT LGT SNOW  30  27  86 N20G28    29.14R WCI  18
$$
MNZ029>031-032-039>041-046>048-054>057-064-241200-
   West Central Minnesota

CITY           SKY/WX    TMP DP  RH WIND       PRES   REMARKS
FERGUS FALLS   LGT SNOW  12   9  85 NW26G36   29.57R WCI  -8
WHEATON        LGT SNOW  12   9  85 NW23G31   29.59R WCI  -7
MORRIS         LGT SNOW  16  12  86 NW26G35   29.50S WCI  -3
ALEXANDRIA     FLURRIES  16  10  77 NW18G29   29.45R WCI   0
ELBOW LAKE     LGT SNOW  13  10  86 NW25G37   29.52R WCI  -6
WADENA         FLURRIES  14  10  85 NW15G26   29.44R WCI  -1
GLENWOOD       FLURRIES  16  12  86 NW21G31   29.45R WCI  -2
APPLETON       FLURRIES  18  12  79 NW26      29.54R WCI  -1
BENSON         FLURRIES  16  10  79 N28G39    29.49R WCI  -4
ORTONVILLE     FLURRIES  16  10  79 N21G29    29.54R WCI  -2
MADISON        PTCLDY    21  16  79 NW21G32   29.55R WCI   6
WILLMAR        CLOUDY    19  12  73 NW26G35   29.46R WCI   1
$$
MNZ033>034-036-042>043-049>051-058-059-241200-
   Central Minnesota

CITY           SKY/WX    TMP DP  RH WIND       PRES   REMARKS
ST CLOUD       CLOUDY    23  17  78 NW23      29.36R WCI   7
SAUK CENTRE    CLOUDY    18  13  80 NW25G32   29.41S WCI  -1
PAYNESVILLE    CLOUDY    17  14  89 W15G23    29.42S WCI   2
AITKIN         CLOUDY    25  19  80 NW9G16    29.33S WCI  15
PINE RIVER     CLOUDY    19  18  93 NW9       29.43S WCI   9
BRAINERD       CLOUDY    20  17  88 NW17G23   29.38R WCI   5
STAPLES        CLOUDY    18  14  86 NW21G26   29.42R WCI   1
LONG PRAIRIE   CLOUDY    18  12  79 W21G26    29.41S WCI   1
LITTLE FALLS   CLOUDY    21  16  79 NW13G22   29.39S WCI   9
LITCHFIELD     CLOUDY    21  19  93 NW22G28   29.40R WCI   5
BUFFALO        CLOUDY    24  19  83 W15G21    29.36S WCI  11
MAPLE LAKE     CLOUDY    24  20  87 NW13G25   29.37R WCI  12
$$
MNZ037-044-045-052-053-241200-
   East Central Minnesota

CITY           SKY/WX    TMP DP  RH WIND       PRES   REMARKS
PRINCETON      CLOUDY    27  21  80 NW16G28   29.33S WCI  14
MORA           CLOUDY    27  23  86 NW23G32   29.32S WCI  12
CAMBRIDGE      CLOUDY    28  21  74 W14G20    29.29S WCI  17
RUSH CITY      CLOUDY    29  26  89 NW12G17   29.29R WCI  20
MOOSE LAKE     CLOUDY    30  27  86 NW14G24   29.25S WCI  20
HINCKLEY       CLOUDY    30  28  93 NW12      29.28R WCI  21
CLOQUET        LGT SNOW  30  28  93 NW17G26   29.24S WCI  18
MCGREGOR       CLOUDY    27  25  93 NW12G21   29.32S WCI  16
$$
MNZ071>073-080-081-089-090-097-098-241200-
   Southwest Minnesota

CITY           SKY/WX    TMP DP  RH WIND       PRES   REMARKS
MONTEVIDEO     LGT SNOW  18  14  86 N24G36    29.51S WCI   0
GRANITE FALLS  CLOUDY    18  13  82 NW25      29.52R WCI   0
CANBY          CLOUDY    18  13  80 NW22      29.55S WCI   1
MARSHALL       CLOUDY    18   9  68 NW26G36   29.50S WCI  -1
REDWOOD FALLS  FLURRIES  19  13  77 NW18G36   29.47R WCI   4
OLIVIA         CLOUDY    21  16  79 NW23G35   29.45R WCI   5
PIPESTONE      FLURRIES  18  12  79 N22G29    29.50R WCI   0
WINDOM         CLOUDY    19  16  86 NW29G38   29.44S WCI   1
WORTHINGTON    CLOUDY    19  12  73 NW23G31   29.47S WCI   2
JACKSON        CLOUDY    21  16  79 NW28G36   29.43S WCI   3
TRACY          CLOUDY    19  14  81 NW21G33   29.49R WCI   3
SLAYTON        CLOUDY    19  14  81 NW25G36   29.47S WCI   1
$$
MNZ065>067-074>077-082>085-091>093-241200-
   South Central Minnesota

CITY           SKY/WX    TMP DP  RH WIND       PRES   REMARKS
MANKATO        CLOUDY    21  16  79 NW21G29   29.38R WCI   6
NEW ULM        CLOUDY    19  18  93 NW28G36   29.41R WCI   1
ST JAMES       CLOUDY    21  18  86 W26G35    29.44R WCI   4
FAIRMONT       CLOUDY    21  18  86 NW24G37   29.41R WCI   4
GLENCOE        CLOUDY    25  21  86 NW21G30   29.37R WCI  10
FARIBAULT      CLOUDY    27  25  93 W21       29.31S WCI  13
OWATONNA       CLOUDY    27  25  93 NW18G31   29.32R WCI  13
WASECA         CLOUDY    23  19  86 W25G32    29.36R FOG     WCI   7
ALBERT LEA     CLOUDY    25  23  93 NW21G36   29.32R FOG     WCI  10
$$
MNZ078>079-086>088-094>096-241200-
   Southeast Minnesota

CITY           SKY/WX    TMP DP  RH WIND       PRES   REMARKS
ROCHESTER      LGT SNOW  29  27  92 NW22      29.25R FOG     WCI  15
RED WING         N/A     34  30  86 NW10G20   29.25S WCI  26
STANTON        CLOUDY    30  26  85 NW18G26   29.28R WCI  18
DODGE CENTER   LGT SNOW  28  28 100 NW18      29.26R WCI  16
WINONA         CLOUDY    34  32  93 NW15G23   29.22R WCI  24
AUSTIN         LGT SNOW  27  25  93 NW18G29   29.28S WCI  13
PRESTON        LGT SNOW  29  27  94 NW16G28   29.23S WCI  17
$$
ABBREVIATIONS USED IN REMARKS
   TC - TEMPERATURES IN CELSIUS
  WCI - WIND CHILL INDEX
   HX - HEAT INDEX
  VSB - VISIBILITY
$$


USA.gov is the U.S. government's official web portal to all federal, state and local government web resources and services.